Location: Cataure
(10.5167°N, 67.1000°W)
Time: 07:19:20
(UTC+00:00)

Palapa 6 Rocket - Pass Details

Date: 18 April 2024
Orbit: 482 x 1187 km, 22.7° (Epoch: 24 May)

Event Time Altitude Azimuth Distance (km) Brightness Sun altitude
Rises 23:22:32 0° 302° (WNW) 2,547 7.8 -11.2°
Reaches altitude 10° 23:24:54 10° 313° (NW) 1,644 6.3 -11.7°
Maximum altitude 23:28:14 31° 17° (NNE) 862 3.8 -12.5°
Enters shadow 23:30:33 17° 71° (ENE) 1,311 4.3 -13.1°
